Find Starlink 3644

NORAD ID: 51987 Int'l Des: 2022-025 Owner: SPXS Country: US Constellation: starlink operational
LEOCIRCULAR

当前视图

正在加载3D地球...

关于 Starlink 3644

正在加载描述...

即将过境

Passes for default location (London). Set your location on the main map for personalized predictions.

高度历史

Loading altitude history...

两行轨道根数

1 51987U 22025AH 26150.85237522 -.00000072 00000-0 13538-4 0 9993
2 51987 53.1978 30.2692 0001314 92.7299 267.3843 15.08838069233463
Epoch: May 30, 2026 • Age: 5 hours

当前状态

高度 539.8 km
速度 7.60 km/s
星下点 19.89°N, 83.6°W
发射日期 Mar 9, 2022
运行时间 4.2 years
类型 internet

技术详情

分类 Payload
质量 297.00 kg
干质量 275.00 kg
总质量 297.00 kg
长度 0.20 m
直径 2.80 m
跨度 9.00 m
形状 Box + pan
制造商 SPXS
平台类型 Starlink
阶段状态 In Orbit
所有者/国家 SPXS/US

Most Searched